PUL110 CYTZ-CYXU

Flight info

Callsign PUL110
Flight time 0h 29m
Altitude 16000
Route PERLO4 DERLO
Aircraft PC12/L-SDFGRWY/S

Departure

Time 2026-04-23 03:47
Airport Billy Bishop Toronto City Airport (CYTZ)

Arrival

Time 2026-04-23 04:17
Airport London International Airport (CYXU)
Time Latitude Longitude Altitude Speed Heading
2026-04-23 03:45 43.63277 -79.39445 253 ft 8 kts 143°
2026-04-23 03:45 43.63196 -79.39362 253 ft 9 kts 143°
2026-04-23 03:46 43.63178 -79.39343 253 ft 9 kts 144°
2026-04-23 03:46 43.63073 -79.39247 254 ft 21 kts 152°
2026-04-23 03:46 43.63015 -79.39247 255 ft 0 kts 251°
2026-04-23 03:47 43.62985 -79.39368 256 ft 43 kts 251°
2026-04-23 03:47 43.62818 -79.40054 332 ft 96 kts 256°
2026-04-23 03:47 43.62506 -79.41036 583 ft 137 kts 227°
2026-04-23 03:47 43.61563 -79.41192 1163 ft 148 kts 151°
2026-04-23 03:48 43.60690 -79.40466 1818 ft 150 kts 158°
2026-04-23 03:48 43.59646 -79.40290 2480 ft 152 kts 176°
2026-04-23 03:48 43.58638 -79.39927 3149 ft 151 kts 144°
2026-04-23 03:48 43.57814 -79.39049 3821 ft 150 kts 140°
2026-04-23 03:49 43.56883 -79.38423 4429 ft 155 kts 181°
2026-04-23 03:49 43.56004 -79.39124 5111 ft 148 kts 233°
2026-04-23 03:49 43.55401 -79.40292 5875 ft 149 kts 238°
2026-04-23 03:49 43.54775 -79.41433 6725 ft 150 kts 237°
2026-04-23 03:50 43.54116 -79.42563 7516 ft 152 kts 237°
2026-04-23 03:50 43.53440 -79.43698 8302 ft 154 kts 237°
2026-04-23 03:50 43.52753 -79.44841 9128 ft 156 kts 238°
2026-04-23 03:50 43.52058 -79.45998 9953 ft 158 kts 239°
2026-04-23 03:51 43.51363 -79.47153 10691 ft 160 kts 239°
2026-04-23 03:51 43.50647 -79.48344 11439 ft 163 kts 239°
2026-04-23 03:51 43.49915 -79.49558 12205 ft 166 kts 240°
2026-04-23 03:51 43.49170 -79.50795 12992 ft 169 kts 240°
2026-04-23 03:52 43.48411 -79.52055 13756 ft 173 kts 241°
2026-04-23 03:52 43.47637 -79.53338 14452 ft 175 kts 241°
2026-04-23 03:52 43.46859 -79.54627 15148 ft 175 kts 242°
2026-04-23 03:52 43.46067 -79.55943 15745 ft 185 kts 242°
2026-04-23 03:53 43.45202 -79.57404 15990 ft 212 kts 240°
2026-04-23 03:53 43.44193 -79.59090 16014 ft 242 kts 239°
2026-04-23 03:53 43.43070 -79.60930 16013 ft 259 kts 238°
2026-04-23 03:53 43.41887 -79.62866 16008 ft 268 kts 238°
2026-04-23 03:54 43.40687 -79.64841 16009 ft 270 kts 238°
2026-04-23 03:54 43.39488 -79.66818 16009 ft 269 kts 238°
2026-04-23 03:54 43.38293 -79.68791 16007 ft 269 kts 238°
2026-04-23 03:54 43.37097 -79.70764 16004 ft 269 kts 238°
2026-04-23 03:55 43.35902 -79.72734 15997 ft 269 kts 237°
2026-04-23 03:55 43.34718 -79.74681 15998 ft 269 kts 237°
2026-04-23 03:55 43.33517 -79.76656 15995 ft 269 kts 237°
2026-04-23 03:55 43.32315 -79.78632 15996 ft 270 kts 237°
2026-04-23 03:56 43.31113 -79.80607 15989 ft 269 kts 237°
2026-04-23 03:56 43.29911 -79.82579 15988 ft 269 kts 237°
2026-04-23 03:56 43.28710 -79.84551 15987 ft 269 kts 237°
2026-04-23 03:56 43.27509 -79.86520 15987 ft 269 kts 237°
2026-04-23 03:57 43.26307 -79.88489 15986 ft 269 kts 237°
2026-04-23 03:57 43.25104 -79.90462 15985 ft 269 kts 238°
2026-04-23 03:57 43.24108 -79.92582 15983 ft 261 kts 251°
2026-04-23 03:57 43.23427 -79.94871 15985 ft 259 kts 256°
2026-04-23 03:58 43.22766 -79.97171 15986 ft 259 kts 255°
2026-04-23 03:58 43.22098 -79.99468 15986 ft 259 kts 255°
2026-04-23 03:58 43.21433 -80.01762 15986 ft 259 kts 255°
2026-04-23 03:58 43.20771 -80.04056 15986 ft 259 kts 255°
2026-04-23 03:59 43.20107 -80.06349 15987 ft 259 kts 255°
2026-04-23 03:59 43.19442 -80.08644 15986 ft 259 kts 255°
2026-04-23 03:59 43.18777 -80.10935 15986 ft 259 kts 255°
2026-04-23 03:59 43.18111 -80.13227 15987 ft 259 kts 255°
2026-04-23 04:00 43.17444 -80.15523 15985 ft 259 kts 255°
2026-04-23 04:00 43.16779 -80.17811 15990 ft 259 kts 255°
2026-04-23 04:00 43.16112 -80.20102 15980 ft 260 kts 255°
2026-04-23 04:00 43.15445 -80.22395 15750 ft 264 kts 255°
2026-04-23 04:01 43.14768 -80.24709 15421 ft 260 kts 254°
2026-04-23 04:01 43.14099 -80.26994 15089 ft 257 kts 254°
2026-04-23 04:01 43.13438 -80.29263 14754 ft 256 kts 254°
2026-04-23 04:01 43.12777 -80.31525 14420 ft 256 kts 254°
2026-04-23 04:02 43.12116 -80.33781 14088 ft 255 kts 254°
2026-04-23 04:02 43.11456 -80.36032 13741 ft 254 kts 253°
2026-04-23 04:02 43.10799 -80.38271 13395 ft 253 kts 253°
2026-04-23 04:02 43.10147 -80.40493 13059 ft 251 kts 253°
2026-04-23 04:03 43.09499 -80.42701 12728 ft 249 kts 253°
2026-04-23 04:03 43.08854 -80.44894 12403 ft 248 kts 253°
2026-04-23 04:03 43.08212 -80.47074 12077 ft 246 kts 253°
2026-04-23 04:03 43.07573 -80.49244 11746 ft 245 kts 253°
2026-04-23 04:04 43.06939 -80.51393 11433 ft 243 kts 253°
2026-04-23 04:04 43.06309 -80.53530 11114 ft 242 kts 253°
2026-04-23 04:04 43.05690 -80.55625 10799 ft 240 kts 252°
2026-04-23 04:04 43.05069 -80.57729 10493 ft 238 kts 252°
2026-04-23 04:05 43.04448 -80.59828 10174 ft 237 kts 252°
2026-04-23 04:05 43.03835 -80.61898 9852 ft 233 kts 252°
2026-04-23 04:05 43.03230 -80.63939 9532 ft 230 kts 252°
2026-04-23 04:05 43.02632 -80.65956 9228 ft 228 kts 252°
2026-04-23 04:06 43.02035 -80.67974 8927 ft 229 kts 252°
2026-04-23 04:06 43.01436 -80.69988 8626 ft 229 kts 252°
2026-04-23 04:06 43.00840 -80.71995 8326 ft 228 kts 252°
2026-04-23 04:06 43.00245 -80.73996 8027 ft 227 kts 251°
2026-04-23 04:07 42.99653 -80.75984 7735 ft 225 kts 251°
2026-04-23 04:07 42.99063 -80.77963 7436 ft 225 kts 251°
2026-04-23 04:07 42.98475 -80.79935 7141 ft 224 kts 251°
2026-04-23 04:07 42.97890 -80.81899 6847 ft 223 kts 251°
2026-04-23 04:08 42.97306 -80.83853 6552 ft 222 kts 251°
2026-04-23 04:08 42.96723 -80.85805 6251 ft 222 kts 251°
2026-04-23 04:08 42.96141 -80.87754 5953 ft 221 kts 251°
2026-04-23 04:08 42.95563 -80.89639 5668 ft 207 kts 248°
2026-04-23 04:09 42.94792 -80.91208 5395 ft 191 kts 233°
2026-04-23 04:09 42.93957 -80.92478 5172 ft 174 kts 233°
2026-04-23 04:09 42.93188 -80.93679 4949 ft 165 kts 233°
2026-04-23 04:09 42.92441 -80.94844 4711 ft 162 kts 233°
2026-04-23 04:10 42.91701 -80.95995 4474 ft 162 kts 233°
2026-04-23 04:10 42.91117 -80.97265 4251 ft 156 kts 255°
2026-04-23 04:10 42.90971 -80.98679 4054 ft 141 kts 277°
2026-04-23 04:10 42.91183 -80.99897 3873 ft 126 kts 296°
2026-04-23 04:11 42.91611 -81.00827 3706 ft 105 kts 313°
2026-04-23 04:11 42.92113 -81.01464 3586 ft 96 kts 320°
2026-04-23 04:11 42.92622 -81.02081 3466 ft 99 kts 320°
2026-04-23 04:11 42.93141 -81.02703 3335 ft 98 kts 320°
2026-04-23 04:12 42.93646 -81.03309 3202 ft 95 kts 320°
2026-04-23 04:12 42.94136 -81.03897 3130 ft 93 kts 320°
2026-04-23 04:12 42.94648 -81.04511 3030 ft 102 kts 320°
2026-04-23 04:12 42.95175 -81.05139 2894 ft 96 kts 320°
2026-04-23 04:13 42.95654 -81.05714 2758 ft 89 kts 320°
2026-04-23 04:13 42.96128 -81.06284 2636 ft 94 kts 321°
2026-04-23 04:13 42.96631 -81.06885 2511 ft 97 kts 321°
2026-04-23 04:13 42.97132 -81.07485 2373 ft 94 kts 322°
2026-04-23 04:14 42.97617 -81.08068 2240 ft 93 kts 322°
2026-04-23 04:14 42.98103 -81.08649 2115 ft 95 kts 323°
2026-04-23 04:14 42.98608 -81.09255 1980 ft 98 kts 323°
2026-04-23 04:14 42.99112 -81.09859 1832 ft 95 kts 323°
2026-04-23 04:15 42.99601 -81.10446 1697 ft 93 kts 322°
2026-04-23 04:15 43.00082 -81.11025 1564 ft 92 kts 321°
2026-04-23 04:15 43.01024 -81.12181 1317 ft 89 kts 319°
2026-04-23 04:16 43.01480 -81.12738 1229 ft 92 kts 322°
2026-04-23 04:16 43.02002 -81.13346 1092 ft 100 kts 321°
2026-04-23 04:16 43.02518 -81.13954 945 ft 94 kts 319°
2026-04-23 04:16 43.02962 -81.14482 905 ft 73 kts 321°
2026-04-23 04:17 43.03229 -81.14804 904 ft 34 kts 318°
2026-04-23 04:17 43.03361 -81.14954 906 ft 19 kts 322°
2026-04-23 04:17 43.03363 -81.15048 906 ft 13 kts 217°
2026-04-23 04:17 43.03295 -81.15128 905 ft 12 kts 232°
2026-04-23 04:18 43.03270 -81.15213 905 ft 0 kts 340°
2026-04-23 04:18 43.03292 -81.15216 905 ft 14 kts 356°
2026-04-23 04:18 43.03389 -81.15304 905 ft 17 kts 325°
2026-04-23 04:18 43.03488 -81.15431 905 ft 20 kts 320°
2026-04-23 04:19 43.03580 -81.15546 905 ft 19 kts 317°
2026-04-23 04:19 43.03613 -81.15626 905 ft 2 kts 232°
2026-04-23 04:19 43.03609 -81.15633 905 ft 0 kts 233°